Regional Weather Roundup
Issued by NWS Kansas City/Pleasant Hill, MO

Home | Current Version | Previous Version | Graphics & Text | Print | Product List | Glossary Off
Versions: 1 2 3 4 5 6 7 8 9 10 11 12 13 14 15 16 17 18 19 20 21 22 23 24 25 26 27 28 29 30 31 32 33 34 35 36 37 38 39 40 41 42 43 44 45 46 47 48 49 50

000
ASUS43 KEAX 031610
RWREAX

WEATHER ROUNDUP FOR EASTERN KANSAS AND NORTHWEST MISSOURI
NATIONAL WEATHER SERVICE KANSAS CITY/PLEASANT HILL MO
1100 AM CDT MON AUG 03 2015

KSZ040-057-103>105-MOZ028-029-037-043-031700-
...KANSAS CITY METROPOLITAN AREA...

CITY           SKY/WX    TMP DP  RH WIND       PRES   REMARKS
K.C. INTL      PTSUNNY   83  70  64 VRB6      29.96R
K.C. DOWNTOWN  MOSUNNY   86  70  58 CALM      29.94S HX  90
LEES SUMMIT    SUNNY     84  70  62 VRB5      29.96S
OLATHE - IXD   MOSUNNY   85  69  58 SW6       29.98R
OLATHE - OJC   SUNNY     83  69  62 CALM      29.97R
LAWRENCE       SUNNY     85  72  65 E6        29.95R HX  91

$$

MOZ001>008-011>017-020>025-030>033-038>040-044>046-053-054-031700-
...NORTHERN AND CENTRAL MISSOURI...

CITY           SKY/WX    TMP DP  RH WIND       PRES   REMARKS
ST. JOSEPH     MOSUNNY   79  70  74 N7        29.96R
MOSBY          PTSUNNY   77  63  61 CALM      29.96F
WARRENSBURG    MOSUNNY   82  68  61 N7        29.96R
WHITEMAN AFB   MOSUNNY   84  66  55 N8        29.96R
CLINTON        SUNNY     84  70  61 SW9       29.94F
SEDALIA        MOSUNNY   83  65  54 CALM      29.97R
WARSAW         NOT AVBL
CHILLICOTHE      N/A     80  64  58 NE6       29.97R
KIRKSVILLE     SUNNY     79  59  50 N6        29.97R

$$

MOZ041-047>049-056>058-063>065-088>090-097-031700-
...EASTERN AND SOUTHERN MISSOURI...

CITY           SKY/WX    TMP DP  RH WIND       PRES   REMARKS
ST. LOUIS INTL MOSUNNY   89  61  38 NW10      29.92R
SPIRIT OF STL  MOSUNNY   85  68  56 W6        29.90S
COLUMBIA       MOSUNNY   84  66  54 W7        29.95R
JEFFERSON CITY MOSUNNY   84  67  56 NW5       29.93R
ROLLA          MOSUNNY   83  68  60 W12       29.95S
OSAGE BEACH    SUNNY     82  66  57 W7        29.97R
SPRINGFIELD    SUNNY     87  66  49 W7        29.99S
BRANSON        PTSUNNY   86  66  51 SW3       30.01S
JOPLIN         SUNNY     91  67  44 W10       29.97S HX  94
WEST PLAINS    SUNNY     86  65  49 W8        30.00S

$$

IAZ060-094-KSZ022-034>040-054-083-096-NEZ052-066-093-031700-
...KANSAS...SOUTHEAST NEBRASKA AND IOWA...

CITY           SKY/WX    TMP DP  RH WIND       PRES   REMARKS
TOPEKA         SUNNY     85  70  60 S6        29.95S
MANHATTAN      SUNNY     87  68  52 W7        29.94S HX  90
EMPORIA        SUNNY     88  65  46 SW12G18   29.95R HX  90
CHANUTE        SUNNY     87  66  49 SW10      29.95F
WICHITA        CLOUDY    84  69  60 SW15      29.95S
OMAHA          CLOUDY    76  62  62 SE7       29.99F
LINCOLN        CLOUDY    76  61  59 NE8       30.01R
FALLS CITY     CLOUDY    74  66  76 NE5       29.97R
LAMONI         LGT RAIN  75  60  59 N5        29.99R
DES MOINES     MOSUNNY   78  55  44 VRB6      29.98R

$$




USA.gov is the U.S. government's official web portal to all federal, state and local government web resources and services.